Orbital Elements at Epoch 2459000.5 (2020-May-31.0) TDB
Reference: JPL 26 (heliocentric ecliptic J2000)
Element | Value | Uncertainty (1-sigma) | Units |
e | .1478538130983763 | 4.6483e-08 | |
a | 3.057632898994376 | 2.0212e-08 | au |
q | 2.605550215823015 | 1.3823e-07 | au |
i | 10.87331296823423 | 5.1515e-06 | deg |
node | 210.3245513220155 | 2.2859e-05 | deg |
peri | 191.3457986941359 | 2.7557e-05 | deg |
M | 127.4839531611967 | 1.6875e-05 | deg |
tp | 2458308.940642626342 (2018-Jul-09.44064263) | 8.8757e-05 | TDB |
period | 1952.88397073566 5.35 | 1.9364e-05 5.302e-08 | d yr |
n | .1843427491825776 | 1.8279e-09 | deg/d |
Q | 3.509715582165736 | 2.3201e-08 | au |
|
| | Orbit Determination Parameters
Additional Information
|